TimeCDT,TemperatureF,Dew PointF,Humidity,Sea Level PressureIn,VisibilityMPH,Wind Direction,Wind SpeedMPH,Gust SpeedMPH,PrecipitationIn,Events,Conditions,WindDirDegrees,DateUTC
12:54 AM,52.0,46.0,80,30.00,10.0,Calm,Calm,-,N/A,,Clear,0,2012-11-02 05:54:00
1:54 AM,51.1,46.0,83,30.00,10.0,Calm,Calm,-,N/A,,Clear,0,2012-11-02 06:54:00
2:54 AM,51.1,46.9,86,30.00,10.0,Calm,Calm,-,N/A,,Clear,0,2012-11-02 07:54:00
3:54 AM,53.1,48.9,86,29.98,10.0,South,3.5,-,N/A,,Clear,170,2012-11-02 08:54:00
4:54 AM,53.1,50.0,89,29.98,10.0,SSE,3.5,-,N/A,,Clear,150,2012-11-02 09:54:00
5:54 AM,54.0,51.1,90,29.99,7.0,South,4.6,-,N/A,,Clear,170,2012-11-02 10:54:00
6:54 AM,52.0,50.0,93,30.01,5.0,Calm,Calm,-,N/A,,Clear,0,2012-11-02 11:54:00
7:54 AM,52.0,50.0,93,30.01,5.0,Calm,Calm,-,N/A,,Clear,0,2012-11-02 12:54:00
8:54 AM,60.1,55.9,86,30.03,7.0,SW,4.6,-,N/A,,Clear,230,2012-11-02 13:54:00
9:54 AM,66.9,59.0,76,30.04,10.0,SW,4.6,-,N/A,,Clear,230,2012-11-02 14:54:00
10:54 AM,75.9,62.1,62,30.04,9.0,WSW,5.8,-,N/A,,Clear,250,2012-11-02 15:54:00
11:54 AM,79.0,61.0,54,30.03,10.0,West,10.4,-,N/A,,Clear,280,2012-11-02 16:54:00
12:54 PM,81.0,61.0,50,30.00,10.0,WNW,10.4,-,N/A,,Clear,290,2012-11-02 17:54:00
1:54 PM,82.9,60.1,46,29.99,10.0,West,12.7,-,N/A,,Partly Cloudy,260,2012-11-02 18:54:00
2:54 PM,84.0,57.9,41,29.97,10.0,West,9.2,-,N/A,,Partly Cloudy,280,2012-11-02 19:54:00
3:54 PM,82.9,60.1,46,29.96,10.0,WSW,8.1,-,N/A,,Partly Cloudy,250,2012-11-02 20:54:00
4:54 PM,82.0,59.0,45,29.97,10.0,WSW,5.8,-,N/A,,Partly Cloudy,250,2012-11-02 21:54:00
5:54 PM,77.0,60.1,56,29.97,10.0,Calm,Calm,-,N/A,,Clear,0,2012-11-02 22:54:00
6:54 PM,69.1,60.1,73,29.99,10.0,Calm,Calm,-,N/A,,Clear,0,2012-11-02 23:54:00
7:54 PM,69.1,60.1,73,30.00,10.0,Calm,Calm,-,N/A,,Clear,0,2012-11-03 00:54:00
8:54 PM,64.0,59.0,84,30.01,10.0,Calm,Calm,-,N/A,,Clear,0,2012-11-03 01:54:00
9:54 PM,62.1,57.9,86,30.03,10.0,Calm,Calm,-,N/A,,Clear,0,2012-11-03 02:54:00
10:54 PM,61.0,57.0,87,30.03,10.0,Calm,Calm,-,N/A,,Clear,0,2012-11-03 03:54:00
11:54 PM,59.0,57.0,93,30.04,10.0,Calm,Calm,-,N/A,,Clear,0,2012-11-03 04:54:00